sat.trackr.live / text

‹ back to catalog

WEILAI 1R

NORAD 44884 · 2019-093F

PAYLOAD ACTIVE UNKNOWN

§ Identity

Operator
Country
PRC
Launch date
2019-12-20
Launch site
TAISC
Launch vehicle
Mass (kg)
RCS (m²)

External: N2YO · Heavens-Above · Gunter

§ Orbital elements

Epoch: 2026-09-20T06:00:14.884128Z

Period
95.91 min
Inclination
97.7909°
Eccentricity
0.0017667
Mean motion
15.01333018 rev/d
Perigee alt
550.5 km
Apogee alt
575.0 km
Semi-major
6,940.9 km
B*
2.1094e-4
RAAN
353.3703°
Arg perigee
72.8016°
Mean anomaly
287.5140°
Rev number
36,668

§ Raw data

WEILAI 1R1 44884U 19093F   26263.25017227  .00002663  00000+0  21094-3 0  99902 44884  97.7909 353.3703 0017667  72.8016 287.5140 15.01333018366687

JSON: /api/v1/satellites/44884 · /tle

For live sub-satellite position, see the globe view (requires WebGL).

§ Visibility from observer

Set your observer location to see the next 7 days of passes ≥ 10°. The values pass through the URL so the page stays shareable.

No JS? Fill the form by hand. The geolocation button needs JavaScript.

§ Radio — SatNOGS DB

ModeDescriptionDownlinkUplink
FM Mode U 401.546 MHz

1 transmitter · refreshed weekly from db.satnogs.org